Theta_e
324 323 322 323 323 323 323 323 324 324 323 323 323 321 320 319 319 319 319 317 314 314 312 311 309 311 310 308 307 307 305 305 304 305 305 301 300 303 314 315 315 316 317 318 319 320 320 320 321 322 323 324 325 326 328 330 331 331 331 332 332 332 332 329 330 328 326 325 324 323 322 322 321 321 321 321 320 321 321 321 321 321 321 321 321
321 320 319 320 321 321 321 321 320 321 321 319 318 317 317 317 317 317 318 316 315 316 316 313 310 309 308 308 308 308 306 306 307 305 306 306 304 302 310 313 315 316 316 317 319 319 319 320 320 319 320 320 321 321 322 324 325 326 328 329 330 331 331 330 330 330 329 327 327 326 324 323 322 321 321 321 320 320 319 319 320 320 321 321 320
320 319 317 317 317 317 317 317 318 318 318 317 317 317 317 317 317 317 317 316 314 316 316 314 311 312 309 308 309 309 309 310 309 308 308 307 305 304 305 309 315 315 314 317 316 316 317 320 321 320 321 320 320 321 321 322 322 322 323 324 325 328 329 330 329 329 329 329 329 330 328 324 323 323 322 322 321 320 319 319 319 319 319 320 320
318 318 317 315 314 314 314 315 315 316 317 316 316 317 316 316 316 316 315 315 314 314 314 313 311 311 312 310 310 310 309 309 309 309 308 306 304 303 302 303 307 310 314 315 314 315 317 318 318 318 319 321 321 321 321 321 321 321 322 322 323 324 325 326 326 327 327 327 327 328 329 327 324 323 323 322 322 321 319 319 319 319 319 319 319
314 314 312 311 311 311 311 310 311 313 314 312 311 311 311 312 312 311 311 311 310 310 311 310 309 309 310 309 310 310 310 310 309 308 305 304 302 301 300 301 300 305 308 312 312 313 315 316 316 316 318 319 320 322 322 321 320 319 319 319 320 321 322 322 322 323 324 324 325 325 326 327 326 324 324 323 322 321 320 319 319 319 319 319 319
310 310 310 309 308 309 309 309 310 310 310 309 308 307 307 307 309 307 305 305 304 303 305 305 307 308 308 308 309 310 310 311 308 306 304 303 301 300 300 300 299 300 301 306 309 311 312 312 312 313 314 316 318 320 321 322 321 321 321 320 320 320 320 320 320 321 322 323 323 323 324 324 326 327 326 325 324 323 321 320 320 320 320 319 319
308 307 306 306 305 305 306 307 308 309 309 309 308 305 303 301 302 301 300 299 298 298 298 299 302 304 305 305 307 309 309 306 305 304 304 303 302 300 300 299 299 299 299 299 302 305 310 308 307 309 309 312 315 316 318 320 320 320 320 321 321 320 320 319 319 319 320 320 321 321 322 322 323 326 327 326 325 324 323 322 321 321 320 320 320
304 304 302 302 302 302 302 303 304 304 304 305 306 304 300 298 297 297 296 295 295 295 296 296 297 300 302 303 305 307 305 304 304 304 303 303 301 300 299 298 297 298 300 298 298 300 306 308 305 306 306 308 311 313 316 317 317 318 319 321 320 320 320 319 319 318 318 318 318 318 319 320 321 322 326 326 326 325 324 324 322 322 321 320 320
301 300 299 299 298 298 298 299 299 298 298 299 300 302 301 296 295 294 294 292 292 292 293 294 296 298 300 301 303 301 300 300 301 301 302 300 299 298 296 294 294 297 296 297 296 296 301 305 304 303 302 305 308 310 312 314 314 316 318 319 319 319 318 319 319 318 318 318 317 317 317 318 319 320 321 324 325 325 325 325 323 322 321 321 320
298 298 297 296 295 295 295 295 296 295 295 295 296 298 298 295 292 292 291 290 289 289 290 292 296 297 299 301 298 296 296 297 298 299 299 298 298 296 294 292 291 291 292 294 294 294 296 299 300 299 299 301 304 307 309 310 311 314 316 317 317 317 317 317 317 317 317 318 318 318 318 318 318 319 319 320 321 323 325 324 324 323 322 321 321
295 294 293 292 292 292 292 292 292 293 292 292 292 294 296 294 291 290 289 288 287 288 288 292 294 296 298 296 293 293 294 295 295 295 295 296 297 297 294 291 290 289 290 292 293 291 293 295 292 290 290 299 302 304 306 308 308 311 314 315 315 315 315 316 316 316 316 317 318 318 317 317 318 319 319 319 320 320 322 323 324 324 325 324 323
292 292 291 291 290 290 290 291 291 291 290 290 290 290 291 292 292 289 287 288 288 288 288 290 291 297 298 295 292 292 293 293 293 292 291 291 293 294 291 290 288 288 288 289 292 290 290 293 292 290 289 293 298 299 302 304 305 309 310 312 313 314 314 314 314 315 315 315 315 316 316 316 317 318 319 319 320 320 320 320 322 323 324 324 325
291 291 290 291 289 289 289 289 289 289 289 288 288 289 289 289 289 290 288 286 287 287 287 288 292 294 295 295 293 291 292 292 291 290 290 289 289 292 290 288 287 287 287 288 291 289 288 290 290 288 288 288 289 295 298 300 301 306 309 309 311 312 313 313 314 313 313 313 313 314 314 314 315 315 316 317 319 320 320 320 321 322 322 322 324
290 290 289 289 288 288 288 287 288 288 288 288 288 289 288 288 288 286 287 287 285 286 287 286 284 285 289 292 292 291 289 289 290 289 289 288 287 290 289 287 286 287 287 287 289 288 288 288 289 288 288 288 288 288 290 292 295 302 307 307 309 311 312 311 311 311 310 310 310 309 309 309 310 312 314 315 316 317 319 320 321 321 322 322 322
289 289 288 288 287 287 287 287 287 287 287 286 286 286 286 286 286 285 284 285 285 286 286 286 283 284 287 286 286 287 290 285 287 288 287 287 286 288 288 286 286 286 286 286 288 286 287 287 288 288 288 288 288 288 289 292 293 299 302 303 307 310 312 311 310 309 308 308 308 309 309 309 309 309 310 312 314 315 316 317 318 319 321 322 322
287 287 287 286 286 286 286 286 286 286 286 285 285 285 285 285 285 286 284 283 283 283 285 285 285 283 279 284 284 281 277 280 283 285 285 285 285 285 287 285 285 285 285 286 286 285 286 287 287 287 287 287 287 288 288 289 293 296 296 297 302 303 306 311 311 310 310 308 307 308 309 309 309 309 309 310 311 313 314 315 316 316 318 320 321
287 286 286 285 285 285 285 285 286 285 286 285 285 285 285 285 284 284 284 282 282 281 283 285 284 285 283 279 278 278 279 279 281 281 283 284 283 283 285 284 283 284 283 285 284 285 285 286 286 286 286 286 287 287 288 288 290 292 291 293 296 300 304 309 311 310 309 309 308 307 308 308 308 309 309 310 310 310 312 313 314 314 315 317 318
286 286 286 286 285 285 285 285 285 285 285 285 284 285 284 284 284 284 284 283 282 282 281 283 284 284 284 283 282 278 278 278 278 276 280 281 281 282 282 282 282 283 283 283 283 283 285 284 284 284 285 286 286 287 287 287 290 289 290 293 300 301 302 305 308 309 308 308 307 308 308 307 308 309 309 310 311 311 310 310 311 313 314 315 316
286 286 286 286 286 285 285 285 285 285 285 285 284 284 284 284 284 284 283 285 283 282 281 281 281 283 283 282 283 282 281 278 276 276 273 275 279 280 280 281 281 281 282 282 282 283 283 283 283 284 284 285 286 286 286 287 290 292 296 298 300 301 301 301 301 304 306 306 307 307 306 307 308 309 309 309 310 311 311 311 310 310 312 313 314
286 285 285 285 285 285 284 285 285 284 285 284 284 283 284 284 284 283 284 283 282 282 280 281 280 280 282 281 281 281 280 280 278 277 277 275 276 279 280 280 280 280 281 281 281 282 282 282 283 283 284 285 286 286 286 286 286 287 290 295 298 300 300 300 300 300 301 303 305 305 305 306 307 309 310 309 310 310 311 311 311 310 310 311 313
285 285 284 285 285 284 284 284 284 283 284 283 283 283 283 282 282 282 282 282 282 282 281 280 280 279 279 279 279 278 278 279 278 278 277 274 275 275 277 279 278 278 280 279 280 281 282 281 283 283 284 284 285 286 286 286 286 287 290 294 296 299 300 299 298 298 298 298 300 302 304 305 307 308 309 309 309 310 311 311 311 311 310 310 311
284 284 284 284 283 283 283 283 283 283 283 282 282 282 282 282 281 282 281 281 281 282 281 279 280 280 279 279 278 278 277 277 276 276 275 276 276 275 276 275 275 276 279 278 280 280 280 281 281 281 282 283 284 285 285 284 285 286 289 291 293 295 296 296 296 297 296 296 297 298 301 304 306 307 307 308 308 309 309 310 310 310 311 311 311
283 283 283 283 283 283 282 282 282 283 282 282 281 281 281 281 281 281 281 280 280 280 281 280 280 279 279 278 278 279 278 277 276 276 276 274 274 275 275 276 275 275 276 279 280 280 279 280 279 280 282 281 283 283 283 283 286 288 289 289 290 291 293 294 295 295 295 296 297 298 299 300 301 302 303 305 307 308 309 309 309 309 309 310 310
282 282 282 282 282 281 282 282 282 281 281 281 281 281 281 280 280 280 280 280 280 280 279 279 278 279 278 278 277 279 279 278 278 278 277 276 276 274 274 275 275 275 278 278 278 278 280 279 279 280 280 281 282 282 282 283 283 287 286 287 288 290 292 294 295 294 294 294 295 297 297 297 297 298 301 303 305 307 308 308 307 308 309 309 309
280 281 280 281 281 281 281 280 280 281 281 280 280 280 280 279 279 278 278 278 278 279 278 278 278 278 277 277 277 278 278 278 278 278 277 277 276 273 275 275 273 275 276 276 276 278 278 278 279 280 279 280 281 281 281 282 282 285 286 285 287 288 288 289 290 291 292 293 294 294 295 296 297 298 300 301 303 304 305 306 306 307 307 308 308
280 280 280 281 281 281 281 281 280 280 280 280 280 279 279 279 278 278 278 277 278 278 278 277 277 277 277 277 277 277 277 278 276 278 277 276 275 274 274 274 275 274 275 274 275 275 274 278 278 279 279 279 280 280 281 281 281 284 285 283 283 285 286 288 289 291 292 293 293 293 293 294 296 296 297 300 301 301 303 304 305 306 306 306 307
280 280 281 281 281 281 281 280 280 279 279 279 280 278 278 279 279 278 278 277 277 278 277 277 278 277 276 277 278 276 276 278 276 277 277 277 276 275 275 273 273 274 273 275 274 274 275 276 278 278 279 279 279 279 280 280 281 284 284 280 279 282 284 287 290 292 291 291 291 292 292 292 293 294 295 296 298 299 301 302 303 304 304 304 304
281 281 281 281 281 280 280 279 279 279 278 278 277 277 277 278 277 277 277 279 277 276 277 276 276 276 276 276 277 276 276 276 277 276 276 277 277 276 276 274 273 270 273 272 273 273 276 274 275 277 277 278 279 279 280 280 279 283 282 279 278 279 283 286 289 290 289 290 290 291 291 290 292 293 293 294 295 296 297 298 299 299 298 299 299
281 281 280 280 280 279 279 278 278 278 277 277 277 276 276 277 277 275 276 275 276 276 276 276 276 276 276 276 276 276 276 276 276 276 276 276 276 275 276 274 275 272 270 270 272 272 273 276 274 275 277 277 277 278 278 278 280 281 279 278 278 278 281 285 287 287 287 290 290 289 289 290 291 292 292 293 294 294 295 296 296 296 297 298 299
281 281 280 280 279 279 278 278 277 277 276 276 276 276 276 276 276 275 275 275 275 275 276 275 275 276 276 275 275 276 275 275 275 275 275 274 274 275 274 275 275 273 272 271 271 273 273 275 275 274 276 276 277 277 277 277 281 280 278 277 277 277 282 283 284 285 286 288 288 288 290 290 290 290 290 291 292 293 294 294 294 295 296 297 299
280 279 279 279 278 278 277 277 277 276 275 275 275 275 275 275 275 275 274 274 274 274 274 276 276 275 274 274 274 274 274 274 274 274 274 274 275 274 275 275 274 274 272 272 269 273 273 273 274 275 275 275 276 276 276 277 278 278 276 276 276 279 281 279 281 283 285 285 285 287 288 289 289 289 290 290 291 292 292 293 293 293 294 295 296
279 279 278 278 277 277 277 276 276 275 275 275 274 274 274 274 274 275 274 273 273 273 273 274 276 275 274 273 273 273 274 273 274 274 273 274 274 275 274 274 274 273 273 272 270 270 274 274 274 274 275 274 275 275 275 275 277 278 276 276 276 279 277 276 279 281 282 283 285 286 287 288 289 288 288 288 289 290 291 291 292 292 292 293 295
278 278 277 277 277 276 276 276 275 275 274 274 274 273 273 273 273 274 273 273 272 272 273 272 273 273 273 273 273 273 273 273 273 274 273 273 273 274 274 274 274 273 272 272 270 270 273 274 274 274 274 274 273 274 273 273 274 274 276 275 275 275 275 275 276 279 281 282 284 285 286 287 288 287 287 288 288 289 289 290 290 290 291 292 293
278 278 277 277 277 276 276 275 275 274 274 273 273 272 272 272 273 275 273 272 272 272 272 272 272 274 272 272 272 272 273 272 272 272 272 272 272 272 272 273 272 273 272 272 271 270 270 272 272 273 273 274 272 274 272 272 273 274 273 274 275 275 275 275 275 275 280 281 283 285 286 286 287 287 287 287 287 288 289 289 289 289 290 290 290
277 277 277 276 276 276 275 275 274 273 273 272 272 272 272 271 271 271 272 271 272 271 272 272 272 272 272 272 272 272 273 271 272 271 272 271 272 271 271 272 271 271 272 272 271 269 269 270 272 271 272 272 272 272 273 273 274 274 273 273 274 275 275 275 275 275 279 281 284 284 285 285 285 286 286 286 286 287 287 288 288 288 288 289 289
277 276 276 276 276 275 275 274 273 273 273 272 272 272 272 271 271 271 271 271 271 271 272 272 272 272 272 271 272 272 271 271 271 271 271 271 271 271 271 271 271 271 271 271 271 270 269 268 270 270 271 271 272 272 273 273 273 273 273 273 274 274 274 275 275 275 277 282 283 283 284 284 284 285 285 285 286 286 287 287 287 287 287 287 287
276 276 275 275 275 275 275 273 273 272 272 272 272 271 271 271 271 271 271 271 272 272 272 272 275 272 272 272 271 272 271 270 270 270 271 270 271 271 270 271 271 271 272 271 271 271 269 268 269 271 272 271 272 272 272 271 272 273 273 273 273 273 274 274 275 276 279 281 281 281 281 282 283 284 285 285 285 286 286 286 287 286 286 286 286
275 275 275 275 276 275 274 273 273 272 272 271 271 271 270 271 271 271 271 271 272 272 272 272 272 272 272 272 272 272 271 270 270 270 270 270 270 270 270 270 271 271 270 271 271 271 271 270 270 269 271 270 271 271 272 272 271 271 272 273 274 274 274 273 274 275 276 276 276 276 279 280 281 283 284 284 285 285 286 286 286 286 285 284 285
275 275 276 276 275 274 273 272 272 272 271 271 270 270 270 270 270 271 271 271 272 272 272 272 272 272 272 272 271 272 271 271 270 270 269 270 270 269 270 270 271 270 271 271 271 271 271 270 270 270 270 271 272 271 273 274 273 272 271 272 272 274 274 274 273 275 276 276 278 280 280 280 281 281 282 284 284 284 285 285 285 284 284 284 284
275 275 275 275 274 274 273 272 272 271 270 270 270 269 270 270 271 271 271 271 271 272 272 272 272 272 272 272 272 272 271 271 271 270 271 270 270 269 270 270 271 272 272 271 271 271 270 270 270 270 270 270 271 273 273 273 272 272 273 273 271 272 273 275 275 275 276 276 275 276 279 279 279 280 282 282 282 283 283 283 282 282 282 283 284
276 275 275 275 273 273 272 272 271 271 271 271 271 270 270 271 271 271 271 270 270 270 271 271 271 271 271 271 272 272 272 276 277 276 276 276 271 267 268 270 271 271 271 271 271 271 271 270 270 271 271 271 271 271 271 271 271 271 274 274 273 274 274 274 275 276 276 276 276 277 277 278 277 277 277 276 277 279 279 281 281 281 281 283 284
275 275 274 273 272 272 272 272 271 271 271 271 273 276 276 272 271 272 271 270 270 270 270 270 270 270 271 271 272 276 276 276 276 276 276 276 276 275 272 272 272 272 270 270 270 270 271 270 270 270 270 270 271 272 271 272 274 274 274 274 272 273 274 274 275 276 277 277 276 275 277 278 277 276 276 275 277 278 277 277 277 279 282 284 284
274 273 273 273 273 272 272 271 270 270 270 271 276 278 278 278 273 271 270 270 270 270 270 269 269 269 269 270 270 272 274 274 273 275 275 276 276 276 277 277 276 274 272 272 272 272 271 271 272 272 271 271 272 273 273 273 274 274 274 274 273 273 272 271 270 274 278 277 276 275 275 277 276 274 275 275 276 277 278 277 281 282 282 284 284
273 273 273 273 272 272 271 270 269 269 270 274 277 279 280 279 277 272 270 269 269 271 271 270 270 270 269 270 270 270 270 269 270 270 273 274 275 275 276 276 277 277 278 275 274 273 273 272 272 272 272 271 272 273 273 274 274 274 274 274 274 273 272 272 272 272 276 278 275 273 273 275 275 275 274 276 277 277 277 280 282 282 283 284 284
273 272 272 272 271 271 270 269 269 269 269 276 278 279 280 280 280 276 273 272 272 271 272 271 271 271 270 270 269 270 270 274 272 270 269 269 273 275 276 277 277 278 278 279 279 276 275 273 272 272 273 273 273 273 274 274 275 273 274 273 274 274 274 273 273 273 274 276 274 272 271 274 275 274 274 275 276 276 277 279 282 283 283 283 284
273 273 272 271 271 270 270 269 269 268 268 274 278 280 280 280 280 278 274 274 273 272 272 272 272 272 271 269 268 268 269 269 269 270 270 269 269 270 271 272 273 275 277 278 277 277 277 275 274 272 274 274 273 274 275 276 275 273 273 272 273 272 271 270 272 272 274 275 273 272 271 272 274 274 273 275 276 277 277 279 282 282 283 283 283
272 272 271 271 270 269 268 268 268 268 268 275 278 280 280 280 279 278 274 274 273 272 273 273 273 273 271 270 268 268 268 268 269 270 269 270 271 272 273 274 275 275 275 274 275 275 275 275 274 274 274 275 275 275 276 276 275 274 273 272 272 272 272 273 273 274 274 275 275 273 269 272 274 273 274 275 276 276 276 278 281 282 282 282 283
272 272 271 270 270 268 268 267 267 267 267 276 277 279 280 280 279 276 274 273 272 272 272 272 272 271 270 269 269 268 268 268 272 275 275 274 274 274 274 274 273 273 274 276 277 277 276 275 275 275 275 276 278 276 275 275 274 273 273 273 273 272 271 269 269 271 271 275 276 274 272 272 275 273 272 274 275 274 275 275 279 281 281 282 282
272 271 270 269 268 268 267 267 267 267 266 273 277 278 279 280 278 274 273 272 272 271 271 270 270 269 269 269 269 269 268 268 272 276 277 277 275 274 273 271 272 273 273 273 276 277 277 277 278 278 278 277 277 277 276 276 274 273 271 269 268 269 267 266 268 269 270 272 274 275 273 271 273 272 271 273 274 274 274 274 275 278 280 281 281
271 270 269 267 267 267 267 266 267 266 266 270 276 278 279 280 278 272 272 271 270 270 269 270 269 269 269 272 272 270 269 270 274 276 278 277 275 273 272 272 272 272 272 272 272 273 276 276 276 275 274 273 273 273 272 274 274 273 268 266 268 269 267 267 266 267 268 270 272 275 270 269 271 272 271 272 273 273 274 274 274 275 278 278 280
270 268 267 267 266 265 266 266 269 267 265 268 275 277 279 280 278 272 271 269 268 268 268 269 269 269 269 271 273 273 273 273 276 277 278 278 274 274 274 273 272 271 271 271 270 271 271 269 267 266 266 268 267 267 267 272 272 271 269 269 269 268 266 266 266 266 265 267 271 273 268 269 270 272 271 269 267 270 272 273 274 274 274 274 275
Wind_Speed
7 6 5 7 6 6 6 6 6 5 4 5 4 4 5 4 5 4 4 5 4 4 4 4 3 4 4 4 4 4 4 4 4 4 4 3 2 3 6 6 10 13 15 16 18 18 19 19 19 19 19 18 17 16 14 13 12 12 13 14 15 14 18 9 6 5 4 5 5 5 5 4 3 3 4 5 4 4 5 6 6 6 7 8 7
7 6 7 7 6 6 7 6 6 4 5 5 4 5 4 5 5 5 5 5 6 5 6 4 4 4 4 4 4 4 4 4 4 5 4 4 6 5 7 9 10 13 15 16 17 19 20 19 19 19 19 19 19 18 18 17 15 14 14 13 13 13 13 12 12 11 10 9 10 10 8 7 6 5 5 5 4 3 3 4 5 6 7 7 6
7 6 6 6 6 7 6 5 6 6 5 6 5 6 6 6 5 5 5 5 5 5 6 5 5 5 4 4 4 4 5 6 6 5 6 7 7 7 9 14 11 11 15 16 18 19 20 19 19 19 19 19 18 18 19 18 18 17 16 16 16 15 13 13 12 12 11 12 14 13 12 9 8 7 7 6 6 5 4 4 4 5 6 7 8
7 7 7 7 7 7 7 7 7 6 6 5 6 6 6 6 6 6 6 6 5 6 5 5 5 5 6 6 5 5 5 5 5 5 7 7 7 7 7 8 13 14 15 17 19 20 20 20 20 20 20 20 19 19 18 18 18 18 18 18 18 17 16 16 15 14 15 15 15 17 13 12 9 9 8 9 8 7 6 6 6 6 6 6 8
8 9 9 7 6 7 8 8 7 6 6 7 8 7 7 7 7 7 7 7 8 8 6 6 6 6 5 6 5 5 4 6 6 7 7 7 7 7 7 7 7 12 14 13 16 19 20 21 22 22 22 21 20 20 19 18 18 18 18 18 18 18 18 18 17 17 16 15 16 15 15 12 12 11 10 11 11 9 8 8 8 7 7 7 8
8 9 8 8 7 8 8 8 6 6 7 7 8 7 7 8 7 8 8 8 8 7 7 7 6 5 5 5 5 5 6 7 6 6 6 7 7 7 7 7 7 7 8 11 13 16 21 22 23 23 23 22 21 21 20 20 19 19 19 18 17 17 18 18 17 17 17 16 16 16 16 15 13 14 14 14 13 12 10 9 9 9 8 8 8
8 9 8 7 7 7 8 7 6 6 7 7 8 8 8 9 7 7 7 7 6 6 6 5 5 6 5 5 5 5 6 6 6 6 7 7 7 7 8 8 8 7 7 8 10 15 17 21 22 23 23 22 22 21 21 20 20 20 19 18 18 18 18 18 18 17 17 17 17 17 17 16 16 16 16 17 14 14 13 12 11 10 10 9 10
8 7 8 7 8 9 8 7 7 7 7 6 7 8 8 9 8 6 7 7 6 6 5 5 5 5 5 5 5 6 6 6 6 6 6 7 7 8 8 9 9 8 8 7 8 10 16 16 20 21 22 22 22 22 21 21 21 20 19 19 19 20 19 19 18 17 17 17 17 17 17 17 18 18 16 15 17 15 15 15 15 13 12 11 11
8 8 9 9 8 8 7 7 6 7 7 7 8 6 8 8 8 8 6 6 7 6 6 5 5 4 4 6 6 7 7 7 8 7 7 9 8 8 8 9 9 9 8 8 8 7 11 15 16 18 19 22 22 22 21 21 21 20 20 20 20 20 19 19 19 18 18 17 17 17 17 17 17 18 18 15 14 17 19 18 15 14 13 13 13
9 8 9 9 8 8 7 7 7 7 8 8 8 6 7 7 8 7 7 7 7 7 6 5 4 5 7 7 7 9 8 9 8 8 8 8 8 8 7 8 9 8 8 8 8 8 7 10 13 14 16 20 22 22 22 21 21 20 20 19 19 19 19 19 18 19 19 18 18 18 18 18 18 18 18 18 18 16 16 19 18 16 16 15 14
9 8 9 9 9 8 9 7 7 8 9 9 8 7 7 7 8 7 6 7 6 5 5 4 3 5 8 8 9 9 8 8 8 8 8 7 7 7 8 8 8 8 9 8 7 8 9 7 7 8 10 17 21 22 22 22 21 21 20 20 20 19 19 19 20 19 19 19 19 19 19 19 19 19 19 18 18 19 18 16 17 20 21 19 16
8 8 9 9 9 8 9 8 8 8 10 10 8 8 7 7 8 8 8 8 9 8 7 6 4 8 8 7 8 10 10 9 9 8 8 7 7 7 8 7 8 8 8 7 7 8 9 8 7 8 8 12 18 18 20 20 20 21 21 21 20 20 19 19 20 19 19 19 19 20 20 20 20 21 21 21 20 19 19 19 20 18 17 19 21
8 8 9 9 9 8 9 8 7 9 9 9 7 8 7 6 4 6 9 11 11 10 9 3 6 6 4 5 7 5 8 10 9 8 7 6 6 7 7 9 8 9 8 7 7 8 8 8 7 7 8 9 10 14 17 18 18 21 22 22 21 20 19 20 20 20 20 19 19 20 20 20 21 21 21 22 22 21 20 20 21 21 21 20 18
7 8 8 8 9 9 9 8 8 9 9 8 10 9 10 8 4 6 6 9 8 9 11 5 6 2 2 2 4 3 5 9 11 8 8 7 6 7 8 8 10 9 9 7 7 9 9 8 7 7 8 9 9 8 9 10 12 19 20 23 22 20 20 20 20 20 19 19 19 19 20 21 21 21 22 21 21 21 22 22 21 21 22 21 21
8 7 8 8 9 9 8 8 8 7 10 10 9 10 8 8 7 5 5 5 6 7 9 7 2 1 0 3 2 2 3 5 5 6 8 6 7 8 8 9 12 9 7 7 7 8 8 8 9 9 9 9 8 9 8 9 12 17 17 19 21 21 21 21 20 20 20 20 20 20 21 22 23 23 22 22 22 21 21 21 22 22 22 22 22
8 8 8 8 9 9 8 9 9 8 9 10 9 9 8 8 7 7 4 7 6 8 7 9 7 2 3 2 0 2 3 4 7 4 4 4 9 8 7 9 10 9 7 8 8 8 8 8 9 8 8 9 8 9 8 7 13 13 13 16 16 24 22 20 20 20 21 21 21 21 22 24 25 25 24 23 22 23 22 22 21 22 22 23 22
8 8 9 9 8 8 9 8 9 8 8 9 9 7 6 6 6 7 7 5 6 4 7 8 10 7 4 3 4 5 0 4 4 5 6 6 7 7 6 9 8 8 6 7 8 8 8 9 9 9 9 9 8 8 8 8 8 7 9 16 21 22 22 21 21 21 22 22 22 23 24 25 26 26 25 24 23 22 22 23 22 22 22 22 23
8 8 8 8 9 9 8 9 9 8 8 8 7 8 8 8 6 6 7 5 6 6 5 5 7 9 8 5 2 3 0 3 5 4 6 0 4 6 6 7 8 8 6 7 9 8 8 8 8 9 9 9 9 8 8 7 8 7 9 14 24 21 21 22 22 23 24 24 24 25 26 27 27 26 25 25 24 24 23 23 23 23 22 22 22
7 7 7 8 8 8 8 8 8 7 7 8 9 8 7 6 6 7 6 4 5 8 6 4 3 7 6 6 7 4 2 3 2 2 5 5 3 5 4 8 8 7 6 8 7 8 8 8 8 8 9 9 9 8 8 8 10 10 19 23 23 23 22 22 22 23 24 24 25 25 27 28 28 27 27 26 25 25 24 24 23 23 24 23 23
7 7 7 7 7 8 7 7 8 7 8 8 8 6 7 6 6 5 6 6 5 7 6 6 6 3 5 7 6 4 5 7 4 2 2 5 5 2 1 6 6 6 4 6 6 9 9 8 8 8 7 8 8 8 8 8 8 9 11 23 23 23 24 23 23 23 23 25 26 27 28 28 28 27 27 27 26 26 25 25 24 24 23 24 24
6 7 7 7 6 7 7 8 8 8 7 8 7 7 7 6 7 8 7 7 6 4 6 6 6 4 4 5 5 5 5 4 5 4 2 2 5 5 8 3 3 4 6 4 5 7 7 6 7 7 6 7 8 8 8 8 8 9 12 23 23 23 24 25 24 24 25 25 26 27 28 27 27 27 27 27 26 26 25 25 25 25 25 24 24
6 6 7 6 7 7 7 8 8 7 7 7 7 7 6 7 6 5 5 7 5 6 6 5 5 5 5 4 6 4 5 4 4 4 3 1 2 8 6 10 11 7 6 6 8 7 5 5 7 6 6 7 7 8 8 8 8 8 13 22 23 25 25 25 25 24 25 25 25 25 25 26 27 27 28 28 27 26 26 26 26 25 25 25 24
6 6 6 6 7 6 7 7 7 7 8 7 6 6 6 6 5 6 7 7 6 6 6 5 5 6 6 6 5 5 3 3 2 4 3 2 5 5 7 6 7 11 2 5 9 8 5 6 4 6 6 6 6 8 8 9 10 14 21 23 25 25 26 27 27 26 25 25 25 25 26 27 28 29 29 28 27 27 26 26 26 26 25 25 25
5 6 6 5 6 6 6 7 7 7 8 6 6 6 6 5 6 6 5 5 4 6 5 6 5 5 5 5 5 4 5 5 2 3 3 2 2 5 6 7 5 3 7 6 5 4 8 6 4 5 5 5 6 7 8 9 9 18 15 18 21 22 21 22 23 24 25 25 26 27 27 28 28 27 27 27 27 26 26 26 26 26 26 25 25
5 6 4 4 5 6 6 7 7 7 6 6 5 5 5 6 5 5 5 5 5 5 6 5 5 5 4 3 5 5 5 2 3 3 3 2 2 4 3 2 5 8 4 4 3 6 5 2 5 7 5 5 7 9 9 8 8 15 20 11 21 20 22 23 24 24 25 26 27 27 26 26 26 26 26 26 26 26 27 26 26 26 26 25 26
6 6 5 5 5 5 6 7 7 6 6 6 5 4 4 5 4 5 5 3 4 5 5 4 4 4 3 5 4 5 4 3 3 5 3 4 3 3 6 4 3 7 4 2 3 5 4 3 4 4 4 6 8 7 7 10 9 16 19 11 14 20 22 23 23 23 24 23 25 26 26 25 25 26 26 27 27 27 27 27 27 27 27 26 27
7 6 5 5 5 6 6 7 7 6 5 5 5 4 4 5 5 5 4 3 4 5 5 5 5 4 4 4 4 5 4 3 4 4 4 3 2 2 3 8 6 3 5 4 5 3 7 3 3 3 4 8 8 8 8 8 10 18 18 11 9 17 20 23 23 25 24 24 23 23 25 26 26 26 26 27 27 27 27 27 27 27 26 26 26
6 6 4 5 6 7 7 7 6 6 5 4 4 4 4 5 5 4 4 2 4 4 4 5 4 4 4 3 4 3 3 4 4 5 5 3 3 3 2 2 3 7 7 6 4 5 1 3 3 1 6 7 7 8 10 11 8 17 14 10 10 11 19 22 24 24 24 24 24 24 24 25 26 26 25 25 26 26 26 26 26 26 26 26 26
6 4 6 5 6 6 7 7 6 5 4 4 3 3 3 4 5 4 4 3 4 4 3 4 3 4 4 4 3 3 3 3 4 5 4 3 3 3 2 1 1 2 4 5 9 3 3 3 3 4 6 7 6 8 10 10 12 16 9 9 10 10 17 24 24 24 24 24 24 24 24 23 24 25 26 26 26 26 27 27 27 27 27 27 27
5 5 5 6 6 7 7 6 5 4 4 3 4 3 4 5 4 3 3 3 4 3 3 3 3 4 3 4 3 3 2 4 4 3 3 3 3 2 2 2 1 1 2 5 8 3 6 1 4 5 7 8 6 7 7 8 14 16 11 10 10 10 21 24 23 24 24 25 24 23 23 24 25 25 26 27 27 27 27 27 27 28 28 28 28
6 6 6 7 7 7 6 5 5 4 3 3 3 3 4 5 4 4 3 3 4 4 2 3 2 4 3 3 3 3 2 3 3 3 3 3 3 2 3 2 3 0 2 3 4 5 4 4 1 3 8 7 8 8 6 7 10 15 12 11 10 18 22 16 21 23 24 25 24 23 23 24 24 24 25 25 26 27 27 27 27 28 28 28 28
6 6 6 7 7 7 6 6 5 4 4 3 3 3 3 3 4 5 3 4 4 3 3 3 3 4 4 3 2 2 2 3 3 3 2 3 1 2 2 1 2 2 1 3 6 14 9 5 6 4 6 8 8 9 8 7 9 14 10 10 12 17 10 9 16 22 23 24 24 24 24 24 24 24 25 25 25 26 26 26 26 26 26 26 26
7 7 7 8 7 7 6 6 5 4 4 3 3 3 4 4 3 4 3 4 4 3 3 3 3 3 3 3 2 2 1 3 2 2 3 3 2 2 1 2 2 3 3 3 7 12 14 1 3 6 7 7 7 7 11 9 10 9 10 9 10 10 9 8 9 16 22 23 23 24 24 24 24 24 24 24 25 25 26 26 27 26 26 26 26
6 7 8 7 7 7 6 6 5 4 3 3 3 3 3 3 3 3 3 3 3 3 3 3 2 2 2 2 2 2 1 2 2 3 2 3 2 1 2 2 3 3 3 4 6 8 15 13 6 5 7 6 8 5 9 13 12 10 11 9 9 9 10 9 9 9 19 22 24 24 24 24 25 25 25 24 24 25 26 26 27 27 26 26 26
5 6 8 8 7 7 6 5 5 4 3 3 3 3 3 3 3 3 3 3 3 3 2 1 1 1 1 1 1 1 1 2 1 2 1 2 1 2 2 2 3 3 3 3 5 9 11 13 8 9 8 9 8 10 9 9 10 10 11 10 10 9 8 10 10 7 15 22 23 24 24 24 25 25 25 24 24 24 26 26 27 27 27 26 26
7 5 6 7 7 7 6 5 4 4 4 3 3 3 3 3 3 3 3 3 3 2 2 1 1 1 0 0 1 0 1 1 1 1 2 1 2 2 2 2 2 3 3 3 4 6 9 12 11 7 9 10 10 7 9 9 9 10 9 11 10 10 10 9 10 9 12 21 23 23 23 23 24 25 25 24 25 26 26 27 27 27 27 27 26
7 7 6 5 7 6 6 5 4 4 4 3 3 3 3 3 3 3 2 2 2 1 1 1 1 1 0 0 1 0 1 1 2 1 1 1 1 1 2 2 2 3 3 3 5 5 7 10 11 7 7 8 8 8 8 10 11 9 9 10 10 10 10 9 8 9 15 20 20 21 21 22 23 24 24 25 26 26 27 28 28 28 27 26 26
7 7 8 7 7 7 5 5 4 4 4 4 4 3 3 3 3 3 3 3 2 2 1 0 0 0 0 1 1 1 1 1 2 1 0 0 1 1 2 2 3 3 3 4 4 5 7 9 9 12 7 9 12 8 6 10 13 14 13 11 9 8 9 10 8 8 8 8 8 8 12 15 17 21 25 26 27 28 28 28 27 27 26 26 26
9 8 7 7 6 6 5 5 5 5 4 4 4 4 3 3 3 3 2 3 2 1 1 0 0 0 0 1 1 1 1 2 2 2 2 2 2 3 3 3 3 2 4 5 7 8 8 10 11 10 12 11 10 16 13 10 12 11 13 13 13 8 8 9 12 8 8 10 12 17 16 16 18 17 21 26 28 28 27 26 25 26 25 25 26
8 8 8 7 5 5 5 5 4 4 4 4 4 3 4 4 3 3 3 3 2 1 0 0 0 0 1 1 1 2 2 3 2 3 2 2 2 3 3 3 3 4 6 7 7 8 9 10 10 11 9 9 9 8 9 9 11 11 8 11 15 13 11 11 10 12 10 10 11 9 9 11 12 14 19 20 22 24 26 24 23 23 24 25 25
7 7 7 7 7 6 4 5 4 4 5 5 4 4 4 4 4 4 3 3 2 2 0 0 1 1 1 1 1 2 3 6 6 4 5 5 2 2 3 3 4 5 5 5 5 6 7 7 9 7 9 9 9 10 12 11 10 13 12 14 15 14 13 13 9 8 10 12 11 10 9 7 9 9 10 9 9 16 16 20 17 19 21 23 25
7 7 8 7 7 7 7 5 4 4 5 4 5 9 8 5 4 4 4 3 2 2 2 2 1 1 1 2 3 6 6 5 5 6 7 8 8 5 3 3 4 4 4 5 5 5 7 9 9 9 9 8 8 7 10 12 11 11 14 14 13 16 13 13 12 8 9 11 11 11 8 6 9 11 9 9 9 10 9 9 8 15 22 26 25
8 8 8 9 8 7 7 6 6 5 5 4 9 12 12 11 6 4 4 3 2 3 3 2 3 2 3 3 3 4 4 5 3 7 8 8 8 9 9 9 7 5 4 6 7 7 8 9 8 8 7 10 13 11 10 12 13 17 13 13 16 13 14 13 16 10 2 7 9 11 11 8 10 11 9 9 9 8 8 8 20 26 26 25 24
8 7 8 8 8 7 6 5 6 6 5 7 12 13 12 12 9 5 4 3 3 3 3 3 3 3 3 3 3 3 3 3 3 3 5 8 9 10 10 10 10 12 11 8 9 8 8 9 10 10 11 14 14 12 12 14 15 13 14 14 12 17 14 17 9 13 7 9 13 14 15 7 8 9 10 9 9 8 9 19 27 26 25 24 24
7 8 9 9 8 7 7 7 7 6 5 9 13 14 13 13 13 9 4 4 4 3 3 3 3 3 3 4 3 3 3 7 4 3 3 4 8 12 13 13 13 14 14 15 15 11 9 10 11 13 11 13 15 13 14 16 17 18 15 13 12 13 14 14 14 14 14 14 15 14 13 8 8 8 9 9 9 8 9 15 24 25 25 25 24
9 8 7 8 8 8 8 8 7 5 6 9 14 14 14 14 13 10 5 5 5 4 4 3 3 4 4 4 3 4 3 3 3 5 4 5 6 7 8 8 8 10 13 14 15 18 15 11 11 12 14 13 14 16 16 16 16 14 14 14 14 15 15 16 17 16 14 10 11 13 12 7 5 8 9 9 8 8 7 15 24 24 24 24 24
11 11 11 10 9 7 7 6 6 7 6 11 14 14 14 14 13 10 5 5 5 4 5 6 6 6 5 5 4 4 4 4 5 6 6 7 7 8 8 7 6 5 4 6 7 8 8 8 11 13 13 13 14 16 15 14 16 16 14 16 16 16 16 15 11 9 10 9 13 11 13 8 5 8 11 12 10 11 10 15 21 24 24 23 23
6 5 5 5 8 8 7 7 6 8 6 13 15 15 15 15 15 6 5 6 6 5 5 6 5 4 4 5 5 5 5 5 9 13 10 7 7 9 6 4 4 5 5 6 13 14 12 11 10 11 12 14 18 17 17 15 13 12 12 11 9 9 10 10 10 9 9 8 8 10 10 9 6 10 13 11 10 12 10 9 17 21 22 23 24
10 9 10 9 8 8 8 8 9 8 6 11 15 15 15 16 11 5 6 5 5 6 6 6 5 5 5 5 6 6 6 6 11 13 13 11 7 4 4 6 7 6 5 5 11 15 16 17 17 18 20 22 22 22 22 23 17 15 11 10 8 8 10 11 11 9 10 10 9 10 10 10 7 10 12 9 11 14 12 10 8 17 22 24 27
11 11 8 7 6 8 9 10 10 9 8 10 15 15 16 17 13 7 6 5 6 6 6 6 6 6 6 12 10 7 7 7 13 14 13 12 5 3 5 8 8 6 6 5 5 7 13 13 14 17 18 18 18 18 18 19 20 16 9 10 11 10 10 10 13 12 12 11 10 8 10 9 9 8 10 8 8 6 8 9 12 12 18 19 23
9 6 7 8 7 7 8 9 9 10 8 9 15 16 17 17 13 7 7 5 6 7 6 7 6 6 6 8 13 11 9 11 15 14 15 10 2 4 6 6 7 7 6 6 8 7 4 6 7 7 8 10 9 8 10 18 18 15 10 10 10 10 11 11 12 13 13 8 8 12 12 9 10 8 9 11 9 6 7 8 9 9 9 8 11
Wind_Direction
68 65 71 68 62 60 66 64 65 53 47 63 70 82 68 56 55 47 58 60 49 29 43 37 50 69 72 42 45 36 23 32 29 30 50 52 38 3 13 14 21 20 19 21 20 20 17 13 11 10 8 6 2 357 353 347 350 356 355 351 351 353 8 353 267 246 261 273 273 267 267 268 284 302 321 325 338 338 342 341 335 332 329 327 332
80 69 74 71 68 66 66 64 65 59 60 60 45 69 65 55 50 35 38 47 47 36 34 31 33 36 46 60 36 46 58 44 30 36 44 44 38 17 14 11 21 17 16 19 25 24 18 14 11 9 8 6 5 2 0 357 354 352 349 348 343 345 354 8 3 337 314 310 306 290 274 265 260 275 284 295 299 308 319 327 327 326 322 318 326
80 76 72 69 62 62 58 53 57 44 49 53 41 54 54 54 47 41 35 44 41 40 41 40 34 18 3 29 14 38 37 41 45 44 40 30 40 41 37 36 33 21 21 29 28 22 20 20 19 17 14 10 7 5 3 2 0 358 354 350 346 343 343 351 352 349 339 329 331 327 285 269 262 265 269 270 276 272 275 289 297 302 311 316 314
70 68 64 56 51 55 47 45 37 30 38 48 47 46 51 51 48 46 44 46 43 35 35 44 34 21 14 14 4 44 34 46 56 49 46 44 41 46 42 33 33 32 32 35 29 25 23 24 24 21 18 13 10 7 5 4 3 359 357 355 353 348 346 345 344 342 335 334 336 345 330 269 263 262 263 270 270 271 269 266 274 282 292 293 305
65 68 67 63 57 58 57 51 47 43 43 51 52 47 48 45 43 41 37 36 34 24 19 32 29 15 20 12 12 11 22 44 46 53 51 50 48 45 42 36 35 34 33 31 25 24 25 25 24 19 14 11 9 7 5 6 5 1 357 355 353 350 350 347 346 344 338 337 337 340 347 329 289 275 270 270 271 268 265 270 268 281 288 295 295
79 76 73 76 70 66 69 62 54 59 59 57 59 52 51 47 37 42 34 36 32 21 18 15 2 8 22 9 13 10 24 55 57 59 61 58 56 53 44 40 35 34 29 22 20 19 26 26 22 20 15 11 9 6 4 3 2 -0 358 357 356 354 352 350 347 344 343 339 341 340 335 328 325 303 275 272 271 266 263 264 270 276 287 289 288
73 80 76 71 72 68 60 59 55 56 57 52 63 60 57 53 40 47 42 36 31 28 21 10 359 5 0 6 14 15 49 62 59 57 56 62 61 53 46 41 30 29 24 24 18 16 20 27 24 20 14 10 9 7 4 2 360 356 355 354 358 357 355 353 350 348 344 343 339 338 333 330 325 322 300 271 266 265 266 268 271 280 281 280 287
67 70 76 67 66 62 50 48 44 50 48 46 55 61 61 58 44 45 49 33 26 20 15 11 1 356 347 6 22 48 60 53 49 48 49 58 58 54 49 44 40 34 29 24 23 18 18 22 24 19 14 8 8 6 4 4 1 357 354 354 354 352 351 350 349 349 347 344 341 336 333 332 330 328 325 301 277 268 272 278 286 286 276 274 275
68 69 74 69 66 66 55 52 49 56 55 53 56 54 66 65 52 42 51 43 30 14 10 9 356 351 357 25 42 55 50 43 42 46 51 59 56 52 49 44 37 33 26 24 22 19 13 12 17 16 12 5 4 4 3 3 1 358 356 355 353 350 351 351 349 347 348 346 343 339 336 333 331 328 325 319 308 294 288 285 282 280 274 269 267
67 70 76 73 70 70 63 52 53 57 58 55 54 50 58 60 61 43 41 45 33 20 360 349 349 10 44 62 62 60 50 49 51 50 50 48 49 50 49 43 36 28 25 20 19 17 14 6 8 7 6 3 0 360 0 1 359 355 356 357 356 355 354 353 350 348 346 344 343 343 342 339 336 332 327 324 319 309 296 288 282 276 269 264 266
69 71 78 76 73 68 66 55 57 62 62 57 48 43 49 51 59 43 38 50 50 24 357 331 2 51 77 73 71 65 62 59 55 52 50 47 49 46 46 35 32 26 23 20 16 15 12 10 5 4 358 356 355 354 354 357 355 355 355 355 355 354 354 353 351 349 348 346 344 342 341 340 340 337 334 329 323 317 309 299 291 287 285 282 284
72 76 79 79 77 70 71 62 62 67 65 58 48 43 40 45 43 44 35 30 31 22 14 9 39 71 82 68 66 71 64 63 55 47 42 43 43 46 41 33 31 20 25 15 15 12 9 4 2 358 358 352 349 349 348 349 346 351 355 354 353 352 354 355 355 354 353 352 351 349 347 346 344 341 338 334 330 323 317 311 306 298 290 292 293
68 75 78 80 78 77 74 66 66 69 70 68 63 56 48 46 47 43 44 41 22 9 11 10 59 60 41 69 67 59 76 65 56 46 39 34 38 48 35 32 22 17 16 11 12 10 5 359 355 354 355 350 344 343 345 344 343 343 349 352 350 350 352 354 356 357 357 356 356 355 352 349 346 342 339 337 335 332 325 317 312 307 303 297 289
66 71 73 77 81 75 70 69 67 70 74 69 59 53 47 41 30 56 39 60 46 11 1 30 29 75 55 7 8 17 73 68 53 30 29 30 37 46 36 33 20 13 4 8 7 5 358 354 350 352 347 346 341 342 343 342 340 338 346 353 347 346 347 349 352 354 356 357 358 357 356 353 349 344 338 334 332 330 328 326 323 317 310 305 302
61 64 72 69 74 75 71 69 63 68 71 60 56 52 46 44 38 63 54 40 63 25 24 37 76 335 338 79 3 1 322 16 40 43 22 21 34 40 32 29 17 5 1 4 4 358 354 351 349 346 342 341 338 338 339 340 337 337 343 355 348 343 343 343 344 347 350 350 350 349 349 349 347 343 338 334 330 328 326 324 323 322 320 315 309
59 65 69 68 70 75 75 68 65 61 74 73 60 56 45 42 42 40 56 68 33 34 25 23 41 56 29 80 211 96 0 337 344 320 10 31 33 32 33 27 9 354 3 6 359 354 350 347 345 338 336 335 335 332 337 339 338 339 340 358 347 344 341 340 341 341 342 345 346 345 343 343 342 338 334 332 330 328 324 322 321 319 319 319 316
63 62 68 70 69 71 74 73 71 64 70 73 69 65 60 56 49 55 44 87 59 47 26 29 38 29 126 59 8 33 143 264 339 292 355 14 14 27 27 27 9 352 0 359 355 350 345 343 339 337 333 334 331 328 332 340 340 338 344 356 347 346 346 343 344 343 342 343 344 342 340 339 337 334 331 329 328 327 326 323 319 316 315 316 316
64 68 71 74 74 73 76 78 75 70 69 78 76 65 51 51 38 59 56 34 100 62 40 15 46 44 43 67 128 154 264 292 63 317 337 337 39 15 21 22 1 348 356 356 352 344 341 336 335 333 332 331 330 328 329 340 343 340 354 354 351 352 352 352 350 347 345 343 340 338 338 336 334 332 330 328 327 325 324 323 321 319 314 312 311
68 69 72 74 77 74 76 78 78 77 73 73 67 65 63 56 45 55 51 51 56 73 54 344 6 36 38 58 67 56 75 84 29 317 347 321 2 10 5 13 352 344 356 351 343 341 333 332 331 332 331 330 333 331 334 343 347 348 11 5 356 350 348 347 347 345 343 342 339 338 336 334 331 330 329 327 325 325 323 321 320 319 317 313 309
76 69 69 72 77 75 77 78 78 70 73 69 72 66 67 53 55 59 61 54 62 84 76 33 76 354 15 37 32 58 69 74 80 120 253 306 314 331 83 14 344 322 351 338 339 333 325 327 329 333 336 338 343 344 345 351 355 6 6 359 354 348 345 345 345 343 343 342 340 337 333 329 327 327 327 326 325 324 322 321 320 318 317 315 313
70 77 71 74 75 83 80 79 76 71 72 75 72 70 70 69 55 54 58 56 57 75 80 60 61 50 32 16 32 34 32 62 56 37 57 311 289 339 322 331 325 287 333 320 327 317 317 320 323 334 340 346 354 358 4 5 4 2 355 356 354 349 346 344 341 340 340 339 337 334 331 327 327 327 327 326 324 322 321 321 320 319 316 315 314
70 72 78 73 79 79 79 78 80 79 75 77 76 70 64 66 66 72 68 71 53 63 81 78 75 64 68 71 58 15 24 11 27 21 350 25 342 316 329 336 342 325 320 334 330 313 313 320 330 337 346 352 1 8 6 5 357 355 356 358 352 346 342 338 336 335 335 334 334 333 329 327 328 328 326 325 323 321 320 318 317 317 316 313 313
88 74 73 79 79 77 83 83 81 79 78 74 73 79 74 75 74 70 64 70 66 69 66 62 71 64 57 69 84 85 99 79 27 18 60 338 341 309 323 331 310 314 316 346 320 313 321 330 335 342 348 359 9 4 2 357 355 354 359 356 348 343 340 338 337 336 336 335 333 329 327 326 324 324 322 320 319 318 317 316 317 316 315 314 312
85 84 75 78 87 83 83 83 77 77 73 78 74 78 80 79 71 71 70 70 70 71 72 64 56 62 55 56 61 74 60 75 66 78 58 336 357 296 313 320 303 240 301 318 283 304 324 327 341 354 355 8 2 5 1 359 352 354 353 349 345 343 342 340 337 334 331 329 326 324 323 322 322 321 321 321 320 319 318 318 317 316 313 313 312
99 99 95 96 101 96 88 84 80 74 79 75 74 75 83 82 86 84 81 71 73 78 76 77 73 66 63 50 70 54 49 14 74 67 36 68 33 335 292 302 285 306 304 322 315 323 294 330 5 342 15 4 5 4 356 355 354 347 347 346 349 346 341 336 330 326 324 323 323 322 322 321 321 322 322 320 319 319 319 317 316 315 314 313 312
131 122 134 118 102 105 99 90 85 81 78 79 78 79 88 94 90 84 79 84 79 81 83 78 67 64 66 54 39 49 30 44 56 56 47 36 13 355 323 312 279 286 300 312 310 358 313 359 343 351 2 9 9 3 357 350 344 342 350 353 343 339 334 330 327 326 326 325 323 322 321 321 322 322 321 320 320 319 318 317 316 315 315 314 314
132 139 135 119 110 98 90 88 83 80 76 76 75 78 90 89 84 83 73 69 75 92 83 79 65 58 51 64 46 34 29 27 56 44 56 39 50 318 13 339 330 288 310 304 296 253 258 300 306 337 22 22 356 354 353 350 338 341 347 344 334 333 332 329 328 329 328 326 323 320 321 322 321 320 319 319 318 317 316 316 315 314 313 313 312
133 130 130 115 108 96 87 87 86 84 83 85 83 88 98 96 89 83 74 53 76 83 105 88 80 77 67 53 54 19 37 35 53 45 28 17 20 2 39 29 336 319 323 298 323 304 83 17 304 351 42 26 356 348 345 340 336 339 341 336 331 327 328 327 328 328 327 325 324 324 323 320 319 319 318 317 316 315 315 315 315 314 313 312 311
130 125 119 111 107 103 97 94 92 92 88 88 91 96 98 102 108 96 83 74 79 87 100 90 95 80 66 62 71 55 37 47 48 43 35 30 26 36 53 99 346 300 321 314 306 298 306 53 5 292 33 3 2 351 339 335 332 335 335 331 326 322 323 327 329 328 326 325 325 325 322 320 319 320 320 320 320 319 318 317 316 315 315 313 311
129 130 123 122 113 104 104 103 103 102 108 98 91 93 98 95 107 102 117 95 84 72 76 98 87 86 70 53 53 42 32 61 59 47 41 32 27 18 23 352 42 212 263 300 294 266 282 327 57 316 336 343 353 343 331 324 329 333 331 329 326 320 324 328 327 326 326 326 326 323 322 323 323 322 320 319 318 316 315 314 314 313 313 312 312
134 136 134 125 117 111 112 113 108 112 104 97 95 90 106 111 109 102 82 83 83 77 53 79 82 85 78 57 44 32 43 62 54 37 15 18 354 2 339 21 335 352 256 269 298 275 122 316 5 325 310 336 338 328 323 322 328 330 325 322 320 320 324 323 324 325 325 325 323 323 324 325 324 323 323 321 320 319 318 317 316 315 313 312 311
147 149 139 128 122 121 119 118 116 110 104 101 99 110 105 111 118 101 99 91 81 83 55 62 81 82 78 61 32 38 15 58 43 31 9 341 351 334 327 331 314 304 299 271 260 278 289 308 308 303 317 329 333 324 325 324 321 322 316 315 313 317 319 315 318 321 320 321 321 323 324 325 325 326 325 323 321 320 319 318 318 316 314 313 311
160 152 137 129 125 124 124 120 120 124 123 120 113 107 108 109 117 117 101 94 89 74 84 52 55 77 75 63 25 1 64 58 43 19 4 337 346 348 349 20 341 316 317 279 280 287 294 293 330 323 324 329 324 334 320 322 318 316 314 308 309 314 313 311 310 312 315 316 318 320 321 323 325 326 325 325 323 322 321 320 320 320 319 319 317
161 147 133 127 124 124 122 122 124 133 137 130 123 109 118 117 103 112 101 96 99 86 92 76 48 72 82 71 12 0 23 73 47 9 349 342 351 22 351 19 336 318 303 300 286 282 291 307 330 325 316 333 318 331 321 321 318 315 313 313 311 309 310 309 306 304 308 314 316 318 320 321 322 324 324 323 322 322 322 321 320 319 318 317 317
151 142 135 128 128 124 121 126 132 141 138 130 137 126 138 131 124 105 117 118 117 107 93 109 100 99 68 71 341 5 5 36 16 349 344 331 2 41 19 353 340 309 309 300 300 295 297 297 326 324 327 322 325 320 319 306 304 306 307 310 311 308 302 304 303 297 304 312 315 318 318 319 320 320 320 319 319 320 318 318 319 319 318 317 317
144 136 127 129 125 127 127 134 145 144 142 144 149 158 154 142 135 131 122 111 121 135 143 163 149 123 145 105 301 15 15 37 336 342 321 20 64 41 1 331 328 309 310 301 294 292 298 300 313 329 319 319 317 316 306 299 300 305 304 301 298 298 298 296 297 299 300 307 314 314 314 314 316 317 316 315 316 318 316 316 316 316 316 316 317
145 136 128 128 128 130 140 153 159 157 156 164 153 159 159 149 144 144 135 134 126 136 162 167 163 140 137 180 228 306 16 17 313 313 308 78 60 20 335 300 294 289 290 284 284 278 285 292 300 308 312 304 303 306 305 309 309 300 297 296 300 298 297 289 289 292 296 302 301 300 300 305 311 313 313 314 314 314 314 314 314 314 314 315 317
147 143 142 146 145 145 150 161 160 164 168 168 171 165 156 145 149 150 152 147 143 136 131 142 136 154 158 249 253 229 275 267 272 272 188 180 270 294 290 276 265 274 273 276 273 285 291 293 301 310 314 318 320 312 314 311 311 313 311 302 294 292 294 298 290 293 294 292 297 284 285 287 289 304 312 312 311 312 312 313 312 312 313 314 314
151 149 148 144 144 148 160 157 163 165 171 168 171 173 164 164 163 159 139 135 124 127 124 128 92 1 265 239 243 236 236 247 247 242 212 241 249 260 247 243 254 252 292 306 309 306 302 302 301 298 303 303 301 309 313 307 297 297 303 305 303 296 289 292 300 294 291 290 281 283 283 286 292 301 305 309 310 311 311 311 312 312 311 311 311
153 151 152 150 147 149 162 163 167 163 168 173 178 176 173 170 161 154 152 147 141 128 115 61 28 274 267 261 252 254 238 244 223 228 220 252 238 242 241 233 241 269 293 291 293 294 293 292 288 297 294 287 294 276 289 302 305 303 299 301 301 309 304 294 289 302 302 290 294 288 279 282 279 286 294 299 305 306 308 309 308 308 308 309 309
152 148 142 143 148 156 157 166 170 172 178 188 183 176 174 177 168 160 147 148 148 158 159 241 262 232 274 273 267 265 251 241 255 287 294 291 262 250 258 219 235 252 268 275 278 285 285 284 289 279 285 285 288 300 307 309 302 301 303 302 290 293 301 298 287 285 288 294 292 289 291 293 297 295 298 298 297 298 298 300 302 303 301 307 310
149 147 146 151 157 165 168 173 177 184 191 191 196 195 182 169 164 161 152 158 163 171 191 216 255 251 247 261 270 279 278 283 287 290 291 289 291 290 265 239 250 256 258 266 277 276 285 291 290 291 290 282 292 281 283 283 282 282 299 302 295 305 302 298 289 291 292 288 294 295 295 305 304 300 298 297 294 295 295 298 294 304 309 312 312
157 155 156 163 169 169 172 175 187 196 196 190 205 209 201 188 168 167 169 182 175 187 198 204 217 238 264 253 251 262 270 280 282 280 282 287 293 295 294 293 291 285 288 291 283 279 285 286 289 292 279 287 299 296 285 296 308 307 300 303 303 301 305 305 310 311 206 296 303 304 301 306 302 298 302 296 295 293 299 293 305 311 311 311 310
166 159 167 174 169 169 168 177 192 199 198 200 209 211 206 197 177 172 174 178 189 197 200 205 212 215 233 247 249 240 237 224 228 239 270 287 293 292 290 290 286 284 284 284 292 298 295 298 303 300 301 296 294 299 303 311 311 308 305 301 300 301 299 301 296 303 336 342 317 309 301 310 296 294 297 296 296 295 292 305 311 312 311 311 314
158 171 181 169 178 174 173 185 198 198 194 207 212 212 209 206 198 178 177 184 193 200 206 209 212 222 222 230 243 248 241 261 272 268 255 263 280 282 278 275 274 279 288 293 295 297 303 299 296 294 297 304 306 308 313 311 309 304 300 301 296 300 302 307 310 321 326 329 307 297 295 307 295 297 295 295 289 288 292 303 310 311 312 313 315
171 177 176 179 176 182 186 190 195 195 197 208 213 213 210 207 206 198 167 195 204 205 212 214 222 226 219 214 231 251 248 248 246 249 252 256 256 259 259 256 253 260 272 285 298 298 294 290 292 293 303 307 304 307 310 309 310 310 314 311 320 315 314 309 311 304 302 304 293 295 287 297 299 302 297 296 296 296 297 306 311 312 313 314 316
180 186 184 184 189 184 187 186 188 200 205 206 214 216 211 209 208 201 174 201 204 212 218 222 227 225 221 226 224 229 235 245 245 242 240 245 250 250 252 256 254 249 260 280 288 298 302 300 297 296 299 303 301 305 310 316 315 314 315 313 313 309 300 295 284 288 293 282 280 280 286 305 315 303 306 314 321 311 304 307 309 311 313 315 317
189 176 192 187 182 186 186 182 187 209 210 206 212 217 213 209 210 196 180 200 209 213 211 213 214 211 215 221 228 234 237 240 251 262 263 256 254 257 261 263 267 281 272 286 303 304 301 298 296 295 299 305 311 314 316 317 319 316 309 305 297 295 305 305 297 300 295 298 283 295 293 302 326 315 315 315 310 303 307 307 309 312 316 317 318
181 190 193 191 187 181 182 187 195 210 206 209 211 215 214 210 207 183 194 199 207 211 218 213 214 215 214 219 222 223 231 234 251 259 260 264 261 256 275 290 290 277 281 298 301 302 302 299 300 308 313 315 316 318 321 322 321 323 320 313 311 318 305 304 310 314 315 323 314 296 297 308 337 323 302 299 308 308 302 300 305 312 314 317 317
192 200 188 186 187 186 186 192 197 200 207 209 211 215 214 212 204 188 194 193 212 215 217 219 214 216 213 224 226 218 222 229 248 255 257 260 252 264 296 288 278 289 292 296 292 280 291 305 316 316 316 316 321 324 324 326 330 335 327 318 313 308 306 314 315 316 311 311 304 335 323 314 314 298 297 299 291 277 292 301 302 305 312 312 312
199 180 183 187 192 195 198 196 192 199 208 209 213 215 215 214 209 177 192 197 214 221 213 218 217 208 220 227 234 232 225 232 244 250 253 251 260 276 271 267 279 285 289 300 291 298 329 332 318 321 313 319 320 319 320 329 332 333 325 317 324 328 324 321 319 318 311 304 322 336 308 305 306 308 314 312 297 280 277 280 290 295 298 299 303